Temperature
17 16 16 16 16 16 16 16 16 16 16 16 16 16 16 16 16 16 16 16 16 16 15 15 15 15 15 15 15 15 15 15 14 14 14 14 14 13 13 13 13 13 13
17 16 16 16 16 16 16 16 16 16 16 16 16 16 16 16 16 16 16 16 16 16 15 15 15 15 15 15 15 15 15 15 14 14 14 14 13 13 13 13 13 13 13
17 16 16 16 16 16 16 16 16 16 16 16 16 16 16 16 16 16 16 16 15 15 15 15 15 15 15 15 15 15 15 15 14 14 14 14 13 13 12 12 12 12 12
17 16 16 16 16 16 16 16 16 16 16 16 16 16 16 16 16 16 16 16 15 15 15 15 15 15 15 15 15 15 15 14 14 14 14 14 13 12 12 12 12 12 12
16 16 16 16 16 16 16 16 16 16 16 16 16 16 16 16 16 16 16 15 15 15 15 15 15 15 15 15 15 14 14 14 14 14 14 14 13 12 12 12 12 12 12
16 16 16 15 16 16 16 16 16 16 16 16 16 16 16 16 15 15 15 15 15 15 15 15 15 15 15 15 14 14 14 14 14 14 14 14 13 12 12 12 11 11 11
16 16 15 15 15 15 15 16 16 16 16 16 16 16 16 16 15 15 15 15 15 15 15 15 15 15 14 14 14 14 14 14 14 14 14 13 12 12 11 11 11 11 11
15 15 15 15 15 15 15 15 16 16 16 16 16 16 15 15 15 15 15 15 15 15 15 15 15 14 14 14 14 14 14 14 14 13 13 13 12 11 11 11 11 11 11
15 15 15 15 15 15 15 15 15 15 15 15 16 15 15 15 15 15 15 15 15 14 14 14 14 14 14 14 14 14 14 13 13 13 13 13 12 11 11 11 11 10 10
14 14 14 14 14 14 14 15 15 15 15 15 15 15 15 15 15 14 14 14 14 14 14 14 14 14 13 13 13 13 13 13 13 13 13 12 11 11 11 11 10 10 10
14 14 14 14 14 14 14 14 15 15 15 15 15 15 15 14 14 14 14 14 14 14 14 14 13 13 13 13 13 13 13 13 13 13 13 12 11 11 10 10 10 10 10
13 13 14 14 13 13 14 14 14 14 15 15 15 14 14 14 14 14 14 14 14 14 13 13 13 13 13 13 13 13 13 13 13 13 12 12 11 10 10 10 10 10 10
13 13 13 13 13 13 13 13 14 14 14 14 14 14 14 14 14 14 14 13 13 13 13 13 13 13 13 13 13 13 13 12 12 12 12 11 11 10 10 10 10 10 9
13 13 13 13 13 13 13 13 13 13 14 14 14 14 13 13 13 13 13 13 13 13 13 13 13 12 12 12 12 12 12 12 12 12 12 11 11 10 10 10 9 9 9
12 12 13 12 13 13 12 13 13 13 13 13 13 13 13 13 13 13 13 13 13 12 12 12 12 12 12 12 12 12 12 12 12 11 11 11 11 10 10 10 9 9 9
12 12 12 12 12 12 12 12 12 12 13 13 13 13 13 13 13 13 13 12 12 12 12 12 12 12 12 12 12 12 12 11 11 11 11 10 10 10 10 9 9 9 8
12 12 12 12 12 12 12 12 12 12 12 12 12 13 13 13 12 12 12 12 12 12 12 12 11 11 11 11 11 11 11 11 11 11 10 10 10 10 9 9 9 9 8
11 11 11 11 12 12 12 12 12 12 12 12 12 12 12 12 12 12 12 12 12 12 11 11 11 11 11 11 11 11 11 11 11 10 10 10 10 9 9 9 9 9 8
11 11 11 11 11 11 11 11 11 12 12 12 12 12 12 12 12 12 12 12 11 11 11 11 11 11 11 11 11 11 10 10 10 10 10 10 9 9 9 9 9 8 8
11 11 11 11 11 11 11 11 11 11 11 11 11 11 11 11 11 11 11 11 11 11 11 11 11 10 10 10 10 10 10 10 10 10 9 9 9 9 8 8 8 8 8
10 10 10 10 10 10 11 11 11 11 11 11 11 11 11 11 11 11 11 11 11 11 11 11 10 10 10 10 10 10 10 10 9 9 9 9 9 8 8 8 8 8 8
10 10 10 10 10 10 10 11 10 10 10 10 10 10 11 10 10 11 11 11 10 10 10 10 10 10 10 9 9 9 9 9 9 9 9 9 8 8 8 8 8 7 7
9 9 10 10 10 10 10 10 10 10 10 10 10 10 10 10 10 10 10 10 10 10 10 10 10 9 9 9 9 8 8 8 9 9 9 9 8 8 8 8 7 7 7
9 9 9 9 9 10 10 10 10 10 10 10 10 10 10 10 10 10 10 10 10 10 10 9 9 9 9 9 8 8 8 8 8 8 8 8 8 8 7 7 7 7 7
8 8 9 9 9 9 9 9 9 9 9 9 9 9 9 9 9 9 9 9 9 9 9 9 9 9 8 8 8 8 8 7 7 7 7 8 8 8 7 7 7 6 6
7 8 8 8 8 9 9 9 9 9 9 9 9 9 9 9 9 9 9 9 9 9 9 9 8 8 8 8 8 7 7 7 7 6 6 7 7 8 7 7 6 6 6
Wind_Speed
5 7 13 14 13 13 13 13 14 14 14 15 15 15 15 16 15 15 15 15 15 15 15 15 15 16 16 16 16 16 16 16 16 15 15 15 15 15 15 14 14 13 14
8 10 14 15 14 14 14 14 14 14 14 14 15 15 15 15 15 15 15 15 15 15 14 15 15 15 16 16 15 15 15 15 15 15 14 14 14 14 14 14 13 12 14
9 11 14 15 15 15 15 14 14 14 14 14 14 15 15 15 14 14 14 14 14 14 14 14 14 15 15 15 15 15 14 14 14 14 14 12 12 13 13 13 13 13 13
10 11 13 16 16 16 15 15 14 14 14 14 14 14 14 14 14 13 14 14 14 14 14 14 14 14 14 14 14 14 14 14 14 13 12 11 10 12 12 12 12 12 12
8 10 13 16 16 16 15 15 15 14 14 13 13 13 13 13 13 13 13 14 14 14 14 13 13 13 13 13 14 14 14 13 13 13 12 11 10 11 12 12 11 11 11
8 9 13 16 16 15 15 15 15 14 13 13 13 12 13 13 13 13 13 13 13 13 13 13 13 13 12 12 13 13 13 13 12 12 11 10 9 10 11 11 11 11 11
8 9 12 15 15 15 14 14 14 14 13 13 13 12 12 13 13 13 13 13 12 12 12 12 12 12 12 12 12 12 12 11 12 11 9 9 9 9 10 10 10 10 10
9 8 11 14 14 14 14 14 14 14 14 13 12 12 12 13 13 13 12 12 12 11 11 11 12 11 11 11 11 11 11 10 10 9 8 7 8 8 9 9 9 9 9
7 7 8 11 12 13 13 13 13 13 13 13 12 12 11 12 12 13 12 12 11 11 10 10 11 11 11 10 10 10 10 10 10 8 6 6 7 7 8 8 8 8 9
5 6 6 7 9 10 10 12 13 13 12 12 12 12 11 11 11 11 11 11 11 10 10 9 9 10 10 10 9 9 9 9 8 7 6 6 6 7 7 7 7 7 8
4 4 5 6 6 8 8 9 11 12 11 11 10 11 10 10 10 9 10 10 10 9 9 9 9 9 10 9 8 8 8 7 7 6 5 5 6 6 6 6 6 7 7
5 4 5 5 6 7 7 7 7 8 9 9 9 9 9 9 9 9 10 10 10 9 9 9 9 9 8 8 8 7 7 7 6 5 4 5 5 5 5 6 6 6 7
6 5 4 5 6 6 5 6 5 6 7 7 8 9 9 8 8 8 7 7 8 8 8 8 8 8 8 7 6 6 6 6 5 5 4 5 4 4 4 5 5 6 6
6 5 5 5 5 5 5 5 5 4 5 5 7 9 8 6 5 5 5 6 6 7 7 7 6 6 7 6 6 5 5 5 5 5 4 4 4 4 4 4 5 5 6
5 5 5 5 5 5 5 4 4 4 4 5 7 8 8 6 4 4 5 5 6 6 6 6 5 5 4 5 4 4 3 4 4 4 4 5 4 4 4 4 4 5 5
5 5 5 6 5 5 4 4 4 4 5 5 6 8 9 8 6 4 4 4 5 5 6 6 5 4 3 3 3 3 3 3 4 4 4 4 4 4 4 4 4 4 5
5 5 5 5 5 5 4 4 5 5 5 4 5 8 9 8 8 6 4 3 4 6 6 6 5 4 2 2 1 2 2 2 3 2 3 3 3 4 4 4 4 5 6
4 5 5 5 4 4 3 3 4 5 5 4 5 6 7 8 9 7 4 3 5 6 5 4 3 2 1 1 0 0 0 2 2 2 2 2 2 3 4 5 5 6 7
3 4 5 4 5 4 3 3 3 4 4 4 5 5 6 7 9 8 5 5 6 5 3 3 2 2 1 1 0 1 1 0 1 1 1 1 1 2 3 4 6 6 7
3 3 4 4 4 4 3 2 2 2 2 3 4 5 6 7 8 7 5 6 6 4 3 3 2 1 1 1 1 1 1 1 0 0 1 1 0 1 2 4 5 5 7
2 3 4 4 3 4 3 3 3 2 2 2 3 4 5 6 6 6 5 5 5 4 4 4 2 2 1 1 1 2 2 1 1 1 1 0 1 2 2 3 4 5 6
3 4 4 4 4 4 3 3 2 2 1 2 2 2 4 5 5 6 5 5 5 4 4 3 3 2 1 1 1 1 2 3 2 2 1 1 2 2 2 4 4 4 5
1 3 4 4 4 3 3 3 3 3 2 1 1 1 2 4 5 5 5 5 4 4 4 4 4 4 3 0 1 2 1 3 3 2 2 2 2 2 3 3 4 5 5
2 2 2 3 3 3 4 4 5 4 3 3 1 1 2 3 4 5 5 5 4 3 4 4 3 3 4 3 1 0 1 1 1 2 2 2 2 3 3 3 4 5 6
1 1 1 2 3 3 3 4 5 3 2 1 2 2 1 2 3 4 4 4 4 3 3 3 3 3 3 3 3 1 1 0 0 1 3 3 3 2 3 3 3 4 6
1 0 1 1 2 3 3 4 5 5 3 3 2 3 2 1 1 2 3 3 3 3 3 3 3 3 3 3 3 2 2 2 1 2 3 4 4 3 3 3 3 4 5
Wind_Direction
172 170 162 151 144 138 130 126 121 117 112 113 118 117 114 112 111 108 107 105 104 102 101 101 99 96 93 92 89 86 83 79 77 74 71 72 72 72 71 69 65 60 63
158 163 160 151 146 140 134 129 124 119 115 113 117 118 116 114 113 111 110 107 103 102 102 102 100 97 95 93 90 87 84 79 77 74 70 66 69 70 69 67 66 64 62
147 156 157 152 147 142 136 131 127 121 118 116 117 118 118 115 114 114 111 108 105 103 101 101 101 100 97 95 93 89 86 81 77 73 66 56 60 67 67 66 64 62 60
147 151 155 153 150 145 139 134 130 125 121 119 117 118 117 118 117 115 113 109 106 104 100 99 101 101 99 97 94 91 87 83 78 71 60 54 56 64 65 64 61 59 57
144 148 153 150 151 147 142 138 135 130 126 122 120 120 119 119 119 116 113 109 107 104 103 101 101 102 101 99 97 93 89 85 77 69 60 55 55 62 64 62 59 56 55
143 145 151 149 149 148 146 142 138 134 131 127 125 122 124 120 120 118 114 111 109 107 105 105 104 101 102 102 99 96 92 86 75 66 59 57 58 64 65 60 57 55 53
144 142 150 148 148 147 146 146 142 138 134 131 129 126 128 123 120 120 117 114 111 110 108 106 106 104 101 102 103 100 95 87 76 66 59 57 62 65 64 60 57 53 49
146 143 149 148 147 151 149 145 145 142 138 135 131 130 128 129 124 120 119 116 112 113 112 110 108 106 103 102 105 104 97 89 78 67 57 55 64 65 62 58 53 49 46
138 138 138 145 147 151 150 147 143 143 143 139 135 133 127 129 128 125 122 117 113 110 111 113 112 109 105 102 104 106 100 91 79 67 58 56 64 65 62 57 51 46 42
134 135 134 135 139 140 145 147 144 141 139 139 135 132 127 128 128 128 126 124 120 117 112 111 115 114 106 103 102 104 101 92 78 67 56 60 66 66 62 56 49 43 39
141 139 137 132 128 132 135 140 142 140 136 131 131 131 127 125 124 124 125 125 122 120 117 114 109 115 111 104 101 99 98 89 82 65 56 67 69 66 59 53 47 43 35
164 158 147 142 136 132 136 129 132 132 130 128 127 127 126 124 123 123 123 125 124 120 118 116 113 105 107 102 100 95 93 90 79 62 58 66 65 62 55 47 43 38 30
172 165 151 149 144 139 131 129 125 127 126 127 129 127 123 122 121 117 115 114 113 111 107 106 102 102 102 102 100 96 95 93 80 65 57 61 57 53 47 38 35 28 25
166 168 154 144 145 142 137 137 133 129 132 137 141 138 132 125 122 124 119 116 112 113 111 108 107 105 104 104 104 97 93 97 88 69 58 61 53 44 35 27 23 19 16
166 169 164 153 152 146 142 148 145 145 149 155 154 151 148 143 136 131 131 126 123 125 124 119 116 110 103 102 106 104 96 104 96 77 58 55 47 32 18 13 13 8 4
174 174 164 162 160 151 159 160 161 158 160 161 166 165 160 156 152 139 139 135 134 137 135 130 126 122 116 114 106 110 111 106 98 83 64 52 40 26 7 359 360 359 353
181 170 169 172 163 160 163 169 163 166 164 168 172 171 167 163 160 156 148 151 148 143 134 123 114 109 102 97 96 110 118 120 123 107 83 62 40 22 4 356 351 351 344
180 174 172 171 163 163 165 169 166 169 168 173 175 174 175 172 166 160 157 157 156 145 136 133 132 116 103 99 95 320 119 142 152 143 114 87 57 30 11 356 346 343 341
185 183 174 166 166 165 165 164 167 168 171 173 177 175 179 181 175 167 163 159 156 145 142 152 134 136 144 132 202 358 329 147 170 161 141 120 68 37 14 355 349 343 337
181 184 168 158 160 157 151 148 150 154 170 170 182 187 182 183 179 169 163 163 158 157 159 154 144 108 127 147 86 4 327 295 136 221 227 194 46 351 348 347 345 338 332
162 169 168 158 160 157 159 162 169 188 189 181 190 195 187 181 179 172 171 169 166 170 175 164 155 132 82 72 73 352 321 302 254 253 290 261 268 297 317 319 328 331 327
188 181 177 175 174 173 175 173 178 164 176 178 175 186 188 179 179 180 174 181 176 169 161 167 163 154 110 98 124 109 313 314 281 244 240 245 271 281 289 294 305 316 321
208 209 190 184 178 172 160 144 122 107 107 117 168 196 193 183 178 180 180 179 181 176 178 182 179 171 176 196 86 140 161 252 293 283 247 240 265 281 282 287 289 300 309
254 249 200 177 164 164 158 152 152 168 186 201 186 204 190 183 181 179 180 178 181 181 178 185 182 182 169 182 190 83 153 170 214 297 295 274 267 264 276 290 284 285 294
266 253 194 164 165 164 164 169 170 174 177 159 138 151 187 183 182 173 176 179 182 183 184 178 173 170 178 181 183 174 160 25 189 225 279 297 304 273 268 272 279 285 296
309 308 151 158 177 177 177 177 178 181 164 150 165 183 189 201 202 177 173 184 184 181 187 183 178 174 183 181 184 181 177 179 207 213 250 275 283 284 280 270 270 281 297
Height
1507 1509 1511 1514 1516 1517 1518 1520 1521 1522 1523 1524 1525 1526 1527 1527 1528 1529 1530 1531 1531 1532 1532 1533 1533 1534 1534 1534 1534 1534 1534 1534 1535 1534 1534 1534 1534 1534 1534 1533 1533 1532 1532
1505 1508 1511 1513 1515 1517 1519 1520 1521 1522 1523 1524 1525 1526 1527 1528 1529 1530 1531 1531 1532 1533 1533 1534 1534 1534 1535 1535 1535 1535 1535 1535 1535 1535 1535 1535 1535 1535 1534 1534 1534 1533 1533
1504 1507 1511 1513 1515 1517 1518 1520 1521 1523 1523 1525 1526 1527 1528 1529 1530 1531 1531 1532 1533 1533 1534 1534 1535 1535 1535 1536 1536 1536 1536 1536 1536 1536 1536 1536 1536 1536 1535 1535 1534 1534 1533
1505 1507 1510 1513 1515 1517 1518 1520 1521 1523 1524 1525 1526 1527 1528 1529 1530 1531 1532 1533 1534 1534 1535 1535 1535 1536 1536 1537 1537 1537 1537 1537 1537 1537 1537 1536 1536 1536 1536 1535 1535 1534 1533
1505 1507 1510 1512 1515 1517 1518 1520 1521 1523 1524 1525 1526 1527 1529 1530 1531 1532 1532 1533 1534 1535 1535 1536 1536 1537 1537 1537 1537 1537 1537 1537 1537 1537 1537 1537 1537 1537 1536 1535 1535 1534 1533
1505 1507 1510 1512 1514 1516 1518 1520 1521 1523 1524 1525 1526 1528 1529 1530 1531 1532 1533 1534 1534 1535 1536 1536 1537 1537 1537 1538 1538 1538 1538 1538 1538 1538 1537 1537 1537 1537 1536 1536 1535 1534 1534
1504 1507 1510 1512 1514 1516 1518 1520 1521 1523 1524 1525 1526 1527 1529 1530 1531 1532 1533 1534 1535 1535 1536 1536 1537 1537 1538 1538 1538 1538 1538 1538 1538 1538 1537 1537 1537 1537 1536 1536 1535 1534 1534
1504 1507 1509 1512 1514 1516 1518 1519 1521 1522 1524 1525 1526 1527 1529 1530 1531 1532 1533 1534 1535 1535 1536 1536 1537 1537 1538 1538 1538 1538 1538 1538 1538 1538 1537 1537 1537 1537 1536 1535 1535 1534 1533
1504 1506 1509 1511 1513 1515 1517 1519 1520 1522 1524 1525 1526 1527 1528 1530 1531 1532 1533 1533 1534 1535 1536 1536 1537 1537 1537 1538 1538 1538 1538 1538 1538 1538 1537 1537 1537 1536 1536 1535 1534 1534 1533
1504 1506 1508 1510 1512 1514 1516 1518 1520 1522 1523 1524 1526 1527 1528 1529 1531 1532 1533 1533 1534 1535 1535 1536 1536 1537 1537 1537 1538 1538 1538 1538 1538 1537 1537 1536 1536 1536 1535 1535 1534 1533 1532
1504 1505 1508 1510 1512 1514 1515 1517 1519 1521 1523 1524 1525 1527 1528 1529 1530 1531 1532 1533 1534 1534 1535 1535 1536 1536 1537 1537 1537 1537 1537 1537 1537 1537 1536 1536 1536 1535 1535 1534 1533 1532 1531
1501 1504 1506 1508 1510 1513 1514 1516 1518 1520 1521 1523 1524 1526 1527 1528 1529 1531 1532 1533 1533 1534 1534 1535 1535 1535 1536 1536 1536 1536 1536 1536 1536 1536 1535 1535 1535 1534 1534 1533 1532 1531 1530
1500 1502 1504 1507 1509 1511 1513 1515 1517 1519 1520 1522 1524 1525 1526 1527 1529 1530 1530 1531 1532 1533 1533 1534 1535 1535 1535 1535 1535 1535 1535 1535 1535 1535 1534 1534 1534 1533 1533 1532 1531 1530 1529
1498 1500 1502 1504 1507 1510 1512 1514 1516 1517 1519 1520 1522 1524 1525 1526 1527 1529 1530 1530 1531 1532 1533 1533 1533 1534 1534 1534 1534 1534 1534 1534 1534 1533 1533 1533 1533 1532 1531 1531 1530 1529 1528
1497 1498 1500 1503 1505 1508 1510 1512 1514 1516 1518 1519 1521 1522 1524 1525 1526 1527 1529 1530 1530 1531 1532 1532 1532 1532 1533 1533 1533 1533 1532 1532 1532 1532 1532 1531 1531 1530 1530 1529 1528 1527 1526
1495 1496 1498 1501 1503 1506 1508 1510 1512 1514 1516 1517 1519 1520 1522 1523 1525 1526 1527 1528 1529 1530 1530 1531 1531 1531 1531 1532 1531 1531 1531 1530 1530 1530 1530 1530 1529 1529 1528 1527 1526 1525 1524
1493 1495 1496 1499 1502 1504 1506 1509 1511 1512 1514 1515 1517 1518 1520 1522 1523 1525 1526 1526 1527 1528 1529 1529 1530 1530 1530 1530 1530 1529 1529 1529 1528 1528 1528 1528 1527 1527 1526 1525 1524 1523 1522
1491 1493 1495 1496 1499 1501 1504 1506 1509 1511 1512 1514 1515 1516 1518 1520 1521 1523 1524 1525 1526 1527 1527 1528 1528 1528 1528 1528 1528 1527 1527 1526 1526 1526 1526 1525 1525 1524 1524 1523 1522 1520 1519
1489 1491 1492 1494 1496 1499 1501 1504 1506 1508 1510 1512 1513 1514 1515 1517 1519 1521 1521 1522 1524 1524 1525 1526 1526 1526 1526 1526 1526 1525 1525 1524 1524 1523 1523 1523 1522 1522 1521 1520 1519 1518 1517
1487 1489 1490 1491 1494 1497 1499 1501 1503 1505 1507 1509 1510 1512 1513 1515 1516 1518 1519 1520 1521 1522 1523 1523 1523 1524 1524 1524 1523 1523 1522 1522 1521 1521 1520 1520 1519 1519 1518 1517 1516 1515 1514
1485 1486 1487 1488 1491 1493 1495 1497 1499 1501 1503 1505 1507 1509 1510 1512 1513 1515 1516 1517 1518 1519 1520 1520 1521 1521 1521 1521 1521 1520 1520 1519 1518 1518 1518 1517 1516 1516 1515 1514 1513 1512 1511
1482 1483 1484 1485 1487 1489 1491 1494 1496 1498 1500 1502 1505 1506 1507 1508 1510 1512 1513 1515 1516 1516 1517 1517 1518 1518 1518 1518 1518 1518 1517 1517 1515 1515 1515 1514 1513 1513 1512 1511 1510 1509 1508
1479 1480 1481 1482 1484 1486 1488 1491 1493 1495 1497 1498 1500 1502 1504 1505 1507 1509 1510 1511 1512 1513 1513 1514 1515 1515 1515 1516 1516 1516 1515 1513 1512 1511 1511 1511 1510 1509 1509 1508 1507 1506 1504
1476 1478 1479 1480 1481 1484 1486 1487 1489 1491 1492 1494 1496 1498 1501 1503 1504 1506 1507 1508 1509 1510 1510 1511 1511 1512 1512 1512 1513 1513 1513 1512 1511 1509 1508 1508 1507 1506 1505 1504 1504 1502 1501
1474 1476 1476 1477 1479 1481 1482 1484 1486 1488 1490 1492 1494 1496 1498 1499 1501 1502 1504 1505 1505 1506 1507 1507 1508 1508 1509 1509 1509 1509 1509 1509 1508 1508 1505 1504 1503 1503 1502 1501 1500 1499 1497
1472 1473 1473 1475 1476 1478 1479 1481 1483 1485 1486 1488 1490 1492 1493 1495 1497 1498 1500 1501 1502 1503 1503 1504 1504 1505 1505 1506 1506 1505 1505 1505 1504 1504 1503 1501 1499 1499 1499 1498 1496 1495 1494